This is the latest recevied weather packets stored in our database for station/object KF0WJA. If no packets are shown the sender has not sent any weather packets the latest 10 day(s).
| Time | Temp. | Humidity | Pressure | Rain* | Wind** | Luminosity | Snow |
|---|---|---|---|---|---|---|---|
| 1788308515 | 33.89° C | 36% | 1016.3 hPa | 0 mm | - | 36 W/m² | - |
| 1788308210 | 34.44° C | 35% | 1016 hPa | 0 mm | - | 46 W/m² | - |
| 1788307909 | 34.44° C | 35% | 1016.2 hPa | 0 mm | - | 56 W/m² | - |
| 1788307627 | 35° C | 34% | 1016.1 hPa | 0 mm | - | 70 W/m² | - |
| 1788307300 | 35° C | 35% | 1016.1 hPa | 0 mm | - | 80 W/m² | - |
| 1788306999 | 35° C | 34% | 1016 hPa | 0 mm | - | 88 W/m² | - |
| 1788306695 | 35° C | 34% | 1016 hPa | 0 mm | - | 101 W/m² | - |
| 1788306394 | 35.56° C | 34% | 1016 hPa | 0 mm | - | 113 W/m² | - |
| 1788306089 | 35.56° C | 33% | 1016.2 hPa | 0 mm | - | 126 W/m² | - |
| 1788305784 | 35.56° C | 33% | 1016 hPa | 0 mm | - | 142 W/m² | - |
| 1788305480 | 35.56° C | 33% | 1016.1 hPa | 0 mm | - | 161 W/m² | - |
| 1788305180 | 36.11° C | 33% | 1015.8 hPa | 0 mm | - | 175 W/m² | - |
| 1788304875 | 36.11° C | 33% | 1015.9 hPa | 0 mm | - | 198 W/m² | - |
| 1788304572 | 36.11° C | 33% | 1016 hPa | 0 mm | - | 194 W/m² | - |
| 1788304268 | 36.11° C | 33% | 1015.9 hPa | 0 mm | - | 235 W/m² | - |
| 1788303964 | 36.67° C | 33% | 1016 hPa | 0 mm | - | 246 W/m² | - |
| 1788303663 | 36.67° C | 32% | 1016.1 hPa | 0 mm | - | 260 W/m² | - |
| 1788303359 | 36.67° C | 32% | 1016 hPa | 0 mm | - | 259 W/m² | - |
| 1788303058 | 36.67° C | 32% | 1016.2 hPa | 0 mm | - | 291 W/m² | - |
| 1788302754 | 36.67° C | 32% | 1016.1 hPa | 0 mm | - | 302 W/m² | - |
| 1788302450 | 36.67° C | 31% | 1016 hPa | 0 mm | - | 306 W/m² | - |
| 1788302145 | 36.67° C | 31% | 1016 hPa | 0 mm | - | 337 W/m² | - |
| 1788301841 | 36.67° C | 30% | 1016 hPa | 0 mm | - | 356 W/m² | - |
| 1788301537 | 37.22° C | 30% | 1016.1 hPa | 0 mm | - | 380 W/m² | - |
| 1788301232 | 37.22° C | 31% | 1016.2 hPa | 0 mm | - | 386 W/m² | - |
* Rain latest hour (hover to see other rain measurements)
** Current wind speed in m/s (hover to see current wind gust speed)